Weather in Koltubanka

Russia / Orenburg Oblast     52°56′12″N   51°54′13″E
temp.,
°C
wind,
m/s
gust,
m/s
humid.,
%
clouds,
%
prec.,
mm/h
press.,
hPa
HPBL,
m
7 march, sun
sun723:00−10nne2291100 0.0 101444
02:00−11nne2290100 0.0 101334
05:00−13nne2288100 0.0 101221
08:00−16nnw118535 0.0 101220
11:00−10wnw238118 0.0 1013219
14:00−8w358316 0.0 1013408
17:00−8wsw358748 0.0 1012406
20:00−11ssw389691 0.1 1012225
8 march, mon
mon823:00−11ssw3109495 0.1 1011332
02:00−8ssw61493100 0.2 1008655
05:00−6ssw81589100 1.1 1005935
08:00−5ssw81690100 0.3 10011113
11:00−3sw91788100 1.2 10021168
14:00−1wsw81388100 0.9 10041440
17:00−2wsw71372100 1.2 10061490
20:00−5sw31086100 0.0 1006275
9 march, tue
tue923:00−4ssw2398100 0.6 1006127
02:00−3sw3997100 1.2 1005519
05:00−4wsw31096100 1.9 1004536
08:00−7wsw4119497 0.2 1005433
11:00−8w479090 0.2 1008337
14:00−5w2485100 0.0 1009442
17:00−6nw2387100 0.0 1009466
20:00−9nnw2495100 0.0 1009122
10 march, wed
wed1023:00−11nw2495100 0.0 101089
02:00−14nw259791 0.0 101096
05:00−17wnw359792 0.0 1011127
08:00−18wnw3698100 0.0 1012134
11:00−14nw479299 0.1 1014383
14:00−13nw4689100 0.1 1015516
17:00−14nw4789100 0.1 1016539
20:00−17nw3995100 0.1 1018375
11 march, thu
thu1123:00−20nw389697 0.1 1020284
02:00−23nw369784 0.0 1020185
05:00−26nw369774 0.0 1022150
08:00−28wnw249820 0.0 102488
11:00−23wnw359311 0.0 1025253
14:00−19w369027 0.0 1026362
17:00−17wsw478914 0.0 1025384
20:00−19wsw499667 0.1 1026373